Weather in Novi Mlyny

Ukraine / Chernihiv Region     51°45′53″N   31°49′33″E
temp.,
°C
wind,
m/s
gust,
m/s
humid.,
%
clouds,
%
prec.,
mm/h
press.,
hPa
HPBL,
m
26 september, sun
sun2600:00+13w7149376 0.3 1010614
03:00+12wnw6129311 0.5 1012402
06:00+9nw5129546 0.0 1014473
09:00+10nw6108977 0.0 1015617
12:00+14nw7106752 0.0 10161373
15:00+15nw71056100 0.1 10171715
18:00+12nw6106668 0.0 1018789
21:00+8nw3883100 0.1 1019152
27 september, mon
mon2700:00+8nnw410880 0.0 1021297
03:00+6nnw410960 0.0 1022255
06:00+5nnw389822 0.0 1023225
09:00+8n488120 0.0 1023391
12:00+12nne5664100 0.0 10231174
15:00+12n356963 0.0 1023772
18:00+11nne377962 0.2 1023253
21:00+8nne35905 0.2 1024101
28 september, tue
tue2800:00+7ne37935 0.0 1025124
03:00+6nne3494100 0.0 102565
06:00+5nne349442 0.0 102580
09:00+8ne368391 0.0 1026276
12:00+12ne466780 0.1 10261062
15:00+12ene566767 0.4 1027963
18:00+10ene4774100 0.0 1028535
21:00+6ene499421 0.0 1030242
29 september, wed
wed2900:00+6ene389035 0.0 1031286
03:00+5ene358873 0.0 103294
06:00+7ene3680100 0.0 1033232
09:00+7ene3678100 0.0 1034300
12:00+11e455128 0.0 10341451
15:00+12e44463 0.0 10331476
18:00+10e33595 0.0 103341
21:00+6e34695 0.0 103448
30 september, thu
thu3000:00+5e33755 0.0 103544
03:00+4e22775 0.0 103524
06:00+3e228026 0.0 103526
09:00+6ese346651 0.0 1036201
12:00+11se344934 0.0 1036867
15:00+13se33435 0.0 10351182
18:00+10ese33575 0.0 103437
21:00+7ese346616 0.0 103545